FW1436 Weather Reports


time (UTC)temp
F
wind
direction
speed
knots
gust
knots
rain 1hr
in
rain 24hr
in
rain mn
in
humidity
%
barometer
mb
20260905053039 0 0.0 0.0 0.00 0.00 0.00 1015.5
20260905051536 0 0.0 0.0 0.00 0.00 0.00 1015.5
20260905050021 0 0.0 0.0 0.00 0.00 0.00 1015.5
20260905044520 0 105 0.0 3.5 0.00 0.00 0.00 1015.6
20260905043012 79 101 0.0 2.6 0.00 0.00 0.00 36 1015.4
20260905041512 79 92 0.0 2.6 0.00 0.00 0.00 36 1015.3
20260905040010 79 91 0.0 1.7 0.00 0.00 0.00 36 1015.3
20260905034509 79 100 0.9 4.3 0.00 0.00 0.00 35 1015.4
20260905033011 79 109 0.0 0.9 0.00 0.00 0.00 35 1015.4
20260905031510 79 84 0.0 1.7 0.00 0.00 0.00 35 1015.6
20260905030004 79 53 0.0 1.7 0.00 0.00 0.00 34 1015.6
20260905024501 79 97 0.0 2.6 0.00 0.00 0.00 33 1015.7
20260905023104 80 108 0.0 1.7 0.00 0.00 0.00 33 1015.8
20260905021558 80 103 0.0 2.6 0.00 0.00 0.00 32 1015.8
20260905020059 81 99 0.9 4.3 0.00 0.00 0.00 31 1015.8
20260905014554 81 91 0.0 1.7 0.00 0.00 0.00 31 1016.0
20260905013055 81 103 0.0 1.7 0.00 0.00 0.00 30 1016.1
20260905011556 81 117 0.0 4.3 0.00 0.00 0.00 30 1016.1
20260905010105 82 98 0.0 1.7 0.00 0.00 0.00 30 1016.2
20260905004550 82 80 0.0 2.6 0.00 0.00 0.00 29 1016.2
20260905003049 82 104 0.9 2.6 0.00 0.00 0.00 29 1016.2
20260905001550 83 127 0.0 2.6 0.00 0.00 0.00 29 1016.1
20260905000048 83 88 0.9 4.3 0.00 0.00 0.00 28 1016.2
20260904234550 83 87 0.0 2.6 0.00 0.00 0.00 28 1016.2
20260904233045 83 117 0.0 2.6 0.00 0.00 0.00 28 1016.2
20260904231545 83 110 0.0 2.6 0.00 0.00 0.00 28 1016.2
20260904230046 82 79 0.0 3.5 0.00 0.00 0.00 29 1016.2
20260904224601 81 34 0.0 1.7 0.00 0.00 0.00 29 1016.2
20260904223141 83 134 3.5 7.0 0.00 0.00 0.00 28 1016.3
20260904221538 83 150 0.0 0.0 0.00 0.00 0.00 28 1016.0
20260904220033 84 156 0.0 0.9 0.00 0.00 0.00 27 1015.9
20260904214532 86 144 0.9 4.3 0.00 0.00 0.00 25 1015.9
20260904213033 88 63 0.0 0.9 0.00 0.00 0.00 24 1015.8
20260904211533 87 5 0.0 1.7 0.00 0.00 0.00 24 1015.9
20260904210030 88 49 0.0 1.7 0.00 0.00 0.00 24 1016.0
20260904204530 88 307 0.0 1.7 0.00 0.00 0.00 24 1016.0
20260904203038 87 30 0.0 0.9 0.00 0.00 0.00 24 1015.9
20260904201529 87 302 0.0 1.7 0.00 0.00 0.00 24 1015.8
20260904200028 86 66 0.0 1.7 0.00 0.00 0.00 25 1015.8
20260904194528 85 75 0.0 1.7 0.00 0.00 0.00 28 1015.6
20260904193029 86 127 0.0 0.0 0.00 0.00 0.00 27 1015.4
20260904191526 87 127 0.0 0.0 0.00 0.00 0.00 25 1015.4
20260904190026 88 117 0.0 1.7 0.00 0.00 0.00 24 1015.1
20260904184623 90 220 0.0 0.0 0.00 0.00 0.00 23 1015.0
20260904183025 92 219 0.0 0.9 0.00 0.00 0.00 21 1015.0
20260904181523 93 221 0.0 0.9 0.00 0.00 0.00 20 1014.9
20260904180022 94 215 0.0 0.9 0.00 0.00 0.00 19 1014.9
20260904174521 95 224 0.0 0.9 0.00 0.00 0.00 19 1015.0
20260904173028 96 271 0.0 2.6 0.00 0.00 0.00 19 1015.0
20260904171520 96 254 0.0 2.6 0.00 0.00 0.00 19 1015.0
20260904170019 96 239 0.0 2.6 0.00 0.00 0.00 20 1015.0
20260904164521 96 226 1.7 0.0 0.00 0.00 0.00 19 1015.0
20260904163018 97 231 0.0 6.1 0.00 0.00 0.00 19 1015.0
20260904161517 97 217 0.9 5.2 0.00 0.00 0.00 18 1015.0
20260904160020 99 212 2.6 5.2 0.00 0.00 0.00 17 1015.0
20260904154515 99 114 0.9 6.1 0.00 0.00 0.00 18 1015.1
20260904153014 98 134 0.9 6.1 0.00 0.00 0.00 19 1015.1
20260904151515 99 155 0.9 3.5 0.00 0.00 0.00 17 1015.2
20260904150029 100 270 1.7 8.7 0.00 0.00 0.00 17 1015.3
20260904144511 100 190 0.9 2.6 0.00 0.00 0.00 18 1015.5
20260904143009 99 84 0.0 3.5 0.00 0.00 0.00 18 1015.5
20260904141515 99 264 1.7 7.8 0.00 0.00 0.00 17 1015.6
20260904140007 99 169 0.9 2.6 0.00 0.00 0.00 18 1015.7
20260904134503 99 295 0.9 7.0 0.00 0.00 0.00 17 1016.0
20260904133006 99 260 0.9 7.0 0.00 0.00 0.00 17 1016.0
20260904131501 100 336 1.7 5.2 0.00 0.00 0.00 16 1016.2
20260904130059 98 277 1.7 7.8 0.00 0.00 0.00 16 1016.4
20260904124613 98 272 1.7 6.1 0.00 0.00 0.00 18 1016.4
20260904123055 97 243 1.7 6.1 0.00 0.00 0.00 19 1016.6
20260904121555 97 274 1.7 5.2 0.00 0.00 0.00 18 1016.7
20260904120055 97 242 2.6 6.1 0.00 0.00 0.00 18 1016.9
20260904114548 97 297 1.7 6.1 0.00 0.00 0.00 19 1017.1
20260904113050 96 293 0.0 4.3 0.00 0.00 0.00 20 1017.3
20260904111544 95 226 0.0 5.2 0.00 0.00 0.00 21 1017.5
20260904110041 94 165 0.9 5.2 0.00 0.00 0.00 21 1017.8
20260904104541 93 223 1.7 4.3 0.00 0.00 0.00 22 1017.9
20260904103044 91 156 0.0 3.5 0.00 0.00 0.00 24 1018.2
20260904101535 91 153 0.0 3.5 0.00 0.00 0.00 25 1018.3
20260904100032 91 258 0.0 1.7 0.00 0.00 0.00 25 1018.3
20260904094529 89 300 0.9 2.6 0.00 0.00 0.00 25 1018.3
20260904093027 87 129 0.0 1.7 0.00 0.00 0.00 27 1018.3
20260904091523 85 127 0.0 0.9 0.00 0.00 0.00 31 1018.2
20260904090017 82 101 0.0 2.6 0.00 0.00 0.00 34 1018.3
20260904084516 81 58 0.0 0.0 0.00 0.00 0.00 37 1018.2
20260904083013 80 103 0.0 0.9 0.00 0.00 0.00 37 1018.2
20260904081508 78 123 0.0 0.9 0.00 0.00 0.00 38 1017.9
20260904080006 76 214 0.0 0.9 0.00 0.00 0.00 43 1018.0
20260904074505 73 229 0.0 0.0 0.00 0.00 0.00 49 1018.1
20260904073005 71 229 0.0 0.0 0.00 0.00 0.00 50 1018.1
20260904071504 71 229 0.0 0.0 0.00 0.00 0.00 46 1018.1
20260904064500 67 229 0.0 0.0 0.00 0.00 0.00 50 1017.7
20260904063105 0 0.0 0.0 0.00 0.00 0.00 1017.7
20260904061553 0 0.0 0.0 0.00 0.00 0.00 1017.6
20260904060048 0 0.0 0.0 0.00 0.00 0.00 1017.2
20260904054545 0 0.0 0.0 0.00 0.00 0.00 1017.2